Weather in Lyuksemburg

Russia / Republic of Dagestan     43°39′36″N   46°44′31″E
temp.,
°C
wind,
m/s
gust,
m/s
humid.,
%
clouds,
%
prec.,
mm/h
press.,
hPa
HPBL,
m
30 november, tue
tue3000:00+10ese81686100 0.0 1010313
03:00+11ese816795 0.0 1007282
06:00+10se613855 0.0 1004267
09:00+12se49705 0.0 1004282
12:00+15wnw71159100 0.0 1007620
15:00+15nw4660100 0.0 1007449
18:00+12se22740 0.0 100717
21:00+11ese47810 0.0 1002118
1 december, wed
wed100:00+11ese615780 0.0 995293
03:00+12se613710 0.0 991207
06:00+10wnw7138523 0.0 998578
09:00+11w58670 0.0 1000347
12:00+14nnw5652100 0.0 1002815
15:00+11nw61061100 0.4 10061247
18:00+7nw4673100 0.8 1010793
21:00+6wsw3477100 2.1 1012690
2 december, thu
thu200:00+6sw4673100 0.3 1013429
03:00+6w2471100 0.4 1014254
06:00+6ssw2463100 0.0 1015102
09:00+7nnw5759100 0.0 1019331
12:00+9nw23515 0.0 1020615
15:00+10w22453 0.0 1020934
18:00+7nw00550 0.0 102210
21:00+6se33605 0.0 102323
3 december, fri
fri300:00+5ese35670 0.0 102283
03:00+5e411810 0.0 1022193
06:00+6ese512882 0.0 1021303
09:00+9ese611795 0.0 1021538
12:00+12ese795989 0.0 1019713
15:00+11ese6106880 0.0 1018563
18:00+8ese4886100 0.0 1018222
21:00+7ese3689100 0.0 1018119
4 december, sat
sat400:00+6se359264 0.0 101786
03:00+5sse22905 0.0 101720
06:00+5s12875 0.0 101811
09:00+7wsw226311 0.0 101886
12:00+10w21525 0.0 1017375
15:00+11wnw33550 0.0 1015497
18:00+7wnw22720 0.0 101422
21:00+6sse3375100 0.0 101332